Time,TemperatureF,DewpointF,PressureIn,WindDirection,WindDirectionDegrees,WindSpeedMPH,WindSpeedGustMPH,Humidity,HourlyPrecipIn,Conditions,Clouds,dailyrainin,SolarRadiationWatts/m^2,SoftwareType,DateUTC
2013-08-23 04:11:00,71.0,42.0,-100.00,NE,47,6.0,9.0,35,-99.99,,,0.00,0.000000,,2013-08-23 11:11:00,
2013-08-23 07:12:00,68.0,43.0,-100.00,NE,54,9.0,11.0,40,-99.99,,,0.00,2.000000,,2013-08-23 14:12:00,
2013-08-23 07:21:00,68.0,43.0,-100.00,NE,54,9.0,11.0,40,-99.99,,,0.00,2.000000,,2013-08-23 14:21:00,
2013-08-23 07:32:00,68.0,43.0,-100.00,NE,54,9.0,11.0,40,-99.99,,,0.00,2.000000,,2013-08-23 14:32:00,
2013-08-23 15:13:00,88.0,50.0,-100.00,WSW,247,12.0,21.0,27,-99.99,,,0.00,1122.000000,,2013-08-23 22:13:00,
2013-08-23 15:24:00,88.0,50.0,-100.00,WSW,247,12.0,21.0,27,-99.99,,,0.00,1122.000000,,2013-08-23 22:24:00,
2013-08-23 15:33:00,88.0,50.0,-100.00,WSW,247,12.0,21.0,27,-99.99,,,0.00,1122.000000,,2013-08-23 22:33:00,
2013-08-23 16:12:00,89.0,49.0,-100.00,WSW,245,9.0,21.0,25,0.00,,,0.00,1001.000000,,2013-08-23 23:12:00,
2013-08-23 16:22:00,89.0,49.0,-100.00,WSW,245,9.0,21.0,25,0.00,,,0.00,1001.000000,,2013-08-23 23:22:00,
2013-08-23 16:33:00,89.0,49.0,-100.00,WSW,245,9.0,21.0,25,0.00,,,0.00,1001.000000,,2013-08-23 23:33:00,
2013-08-23 17:21:00,90.0,47.0,-100.00,WSW,246,10.0,15.0,23,0.00,,,0.00,822.000000,,2013-08-24 00:21:00,
2013-08-23 17:32:00,90.0,47.0,-100.00,WSW,246,10.0,15.0,23,0.00,,,0.00,822.000000,,2013-08-24 00:32:00,
2013-08-23 18:11:00,87.0,47.0,-100.00,WSW,251,10.0,15.0,25,-99.99,,,0.00,591.000000,,2013-08-24 01:11:00,
2013-08-23 18:22:00,87.0,47.0,-100.00,WSW,251,10.0,15.0,25,-99.99,,,0.00,591.000000,,2013-08-24 01:22:00,
2013-08-23 18:32:00,87.0,47.0,-100.00,WSW,251,10.0,15.0,25,-99.99,,,0.00,591.000000,,2013-08-24 01:32:00,
2013-08-23 19:11:00,85.0,47.0,-100.00,WSW,254,8.0,15.0,27,0.00,,,0.00,335.000000,,2013-08-24 02:11:00,
2013-08-23 19:22:00,85.0,47.0,-100.00,WSW,254,8.0,15.0,27,0.00,,,0.00,335.000000,,2013-08-24 02:22:00,
2013-08-23 19:32:00,85.0,47.0,-100.00,WSW,254,8.0,15.0,27,0.00,,,0.00,335.000000,,2013-08-24 02:32:00,
2013-08-23 20:22:00,76.0,42.0,-100.00,WSW,251,4.0,10.0,30,-99.99,,,0.00,83.000000,,2013-08-24 03:22:00,
2013-08-23 20:34:00,76.0,42.0,-100.00,WSW,251,4.0,10.0,30,-99.99,,,0.00,83.000000,,2013-08-24 03:34:00,
2013-08-23 21:14:00,75.0,41.0,-100.00,West,265,0.0,7.0,30,0.00,,,0.00,0.000000,,2013-08-24 04:14:00,
2013-08-23 21:24:00,75.0,41.0,-100.00,West,265,0.0,7.0,30,0.00,,,0.00,0.000000,,2013-08-24 04:24:00,
2013-08-23 21:34:00,75.0,41.0,-100.00,West,265,0.0,7.0,30,0.00,,,0.00,0.000000,,2013-08-24 04:34:00,